Wind_Speed
31 29 27 25 24 26 27 27 27 28 26 27 28 31 33 34 33 28 26 28 28 28 28 29 30 31 31 33 35 36 37 40 44 46 49 50 52 54 56 57 57 56 53
31 31 29 28 25 26 28 29 29 31 31 31 32 32 32 30 30 29 27 27 29 30 31 32 33 34 35 36 37 39 41 44 48 51 53 54 54 55 58 61 63 61 60
31 31 30 29 27 27 29 30 32 33 34 35 35 36 34 33 32 31 30 30 30 31 33 34 35 36 37 39 41 43 45 48 50 53 56 57 59 61 61 61 63 63 63
30 30 30 28 29 29 30 32 34 35 36 37 38 38 36 35 34 33 31 30 31 32 34 35 36 37 39 41 43 45 47 49 50 52 55 57 58 59 60 63 64 61 65
30 29 29 30 31 32 34 34 36 37 38 39 41 41 39 38 34 31 31 31 30 32 34 36 37 39 42 44 45 47 48 50 51 52 53 54 55 57 59 61 62 66 66
30 33 33 33 33 36 37 37 38 39 41 42 43 41 40 36 29 28 29 29 33 34 35 37 38 40 42 43 44 47 49 50 52 54 54 55 55 56 57 59 63 67 72
32 32 33 35 37 38 39 40 41 42 44 44 42 38 30 25 25 28 28 31 33 34 36 37 39 41 43 43 42 44 45 47 50 51 52 52 54 55 55 55 53 54 57
36 35 35 36 37 39 39 41 41 41 42 40 39 29 22 20 23 26 30 32 34 36 37 38 39 41 42 43 44 43 43 43 43 43 44 45 46 46 48 50 51 51 51
36 37 36 38 37 38 38 39 38 36 35 35 23 18 19 23 27 29 30 32 34 36 37 38 40 41 43 44 44 43 43 41 39 39 39 40 41 43 45 46 48 51 52
33 36 37 37 38 38 35 33 32 32 30 17 13 18 22 27 30 31 32 33 33 35 36 38 41 42 42 42 41 42 42 40 38 35 35 36 38 42 45 47 49 49 51
33 34 36 36 37 35 29 27 28 24 14 14 16 21 25 28 31 32 31 31 32 35 37 38 39 39 39 39 40 40 38 36 34 34 35 37 39 42 43 44 45 46 46
35 33 39 35 29 26 25 24 18 9 10 16 21 24 27 29 30 30 31 34 34 35 36 36 36 36 36 36 36 35 34 33 34 35 37 38 39 41 43 44 43 43 43
36 32 32 23 20 18 20 15 6 10 17 20 23 26 28 28 28 30 32 33 35 35 34 34 34 34 34 33 33 33 33 34 35 36 38 40 42 43 43 42 41 40 39
28 22 17 16 15 17 12 7 10 16 19 23 27 27 27 28 29 31 32 33 32 32 32 32 33 32 31 31 32 33 34 35 36 38 40 41 41 41 41 41 41 40 40
19 14 13 10 15 9 7 12 15 19 22 25 25 25 27 29 31 32 31 30 29 29 29 30 31 30 30 30 31 32 34 36 37 38 39 40 40 40 39 39 39 38 38
13 11 11 14 9 9 12 15 18 20 22 22 24 26 29 30 30 30 29 28 27 28 28 29 29 29 28 28 29 31 33 35 36 37 38 39 39 39 37 37 37 36 37
13 13 12 9 10 12 14 17 19 20 21 24 25 27 27 28 28 28 28 28 27 28 29 30 29 29 29 29 30 32 33 34 35 36 37 38 38 38 37 35 36 37 35
12 10 10 10 13 15 17 18 18 20 21 23 25 26 28 28 28 28 28 28 28 29 31 31 31 30 29 29 30 31 32 33 34 34 35 36 36 37 37 35 35 37 38
11 12 13 14 15 16 16 16 18 20 22 23 24 25 27 28 28 28 28 28 29 30 32 32 31 30 29 28 29 31 32 33 33 33 34 35 36 35 35 37 36 36 37
14 14 13 14 15 14 15 17 18 20 22 23 24 25 26 29 29 29 29 29 30 31 32 32 31 30 29 29 29 30 32 33 33 34 34 35 35 35 36 37 38 38 37
13 13 14 14 14 15 15 17 19 20 21 23 25 27 28 28 30 30 31 30 31 32 32 32 32 31 29 29 30 30 31 32 33 33 34 34 34 34 35 37 38 38 39
13 14 14 14 14 15 17 18 19 20 22 24 26 27 29 29 30 30 30 31 32 32 32 31 31 30 29 29 30 31 31 31 32 33 34 35 34 34 35 37 38 40 40
14 13 13 14 15 16 17 19 20 21 23 24 26 27 28 30 30 30 31 31 32 34 34 32 31 29 28 29 29 31 31 32 33 33 33 34 35 34 35 37 38 40 40
13 14 14 15 16 18 19 20 21 22 23 24 26 27 28 29 30 31 32 32 33 34 34 31 30 27 27 29 30 31 32 33 34 34 34 34 34 35 36 36 37 36 37
15 15 15 17 18 19 20 21 22 22 23 25 26 27 28 28 29 31 32 33 32 32 31 29 28 27 28 29 30 32 33 33 34 35 35 35 35 35 35 34 33 31 31
16 17 18 18 19 20 21 22 22 23 24 25 26 27 28 28 28 30 32 33 31 30 28 27 28 28 29 29 30 31 33 33 34 35 35 34 33 33 33 31 28 28 27
Wind_Direction
307 301 290 285 279 273 270 270 267 269 277 282 285 290 293 294 292 288 287 285 283 281 279 278 280 281 284 287 290 293 295 296 297 298 300 302 301 301 301 301 301 300 298
301 297 292 281 278 273 269 269 270 271 276 281 285 294 296 293 288 286 282 279 279 278 278 279 281 283 287 290 293 295 297 298 298 298 299 300 300 300 299 300 300 299 298
296 289 290 282 277 277 274 272 273 274 277 282 287 296 295 289 284 280 277 277 277 277 278 281 284 287 290 293 295 297 297 298 299 300 300 300 300 300 298 297 296 296 297
288 286 284 282 275 279 279 276 275 277 280 282 287 290 298 292 280 276 276 276 278 281 283 286 288 290 293 295 297 299 299 299 298 297 298 297 298 298 298 299 298 297 296
280 280 283 280 277 276 277 278 278 279 280 281 284 290 291 289 275 274 276 279 282 285 288 290 292 295 298 301 301 301 300 301 302 301 302 301 300 299 299 300 301 301 301
287 280 278 278 280 278 276 276 276 278 279 280 281 285 289 280 269 273 277 286 288 288 292 294 296 299 301 302 303 305 306 306 306 306 306 306 307 307 307 308 309 308 307
284 284 280 275 275 278 277 274 275 277 281 284 288 287 278 271 270 275 285 286 289 292 295 298 301 302 302 305 306 307 307 307 307 307 307 308 310 311 311 312 312 310 310
282 279 280 278 275 276 277 274 273 277 281 283 282 275 272 276 282 286 286 290 294 296 299 301 303 304 304 304 306 307 307 306 306 308 309 310 310 310 310 311 312 312 311
280 276 276 276 277 275 275 274 274 277 276 276 263 267 283 288 285 288 293 296 299 300 302 303 304 304 305 307 307 306 307 308 309 309 308 308 309 311 312 312 312 312 311
289 280 278 278 276 272 270 271 272 271 267 256 275 279 285 288 291 294 297 301 301 302 306 307 306 306 306 306 306 307 309 311 311 310 309 310 312 313 315 316 315 315 314
300 295 286 276 274 273 270 269 263 253 256 271 285 290 287 291 294 297 299 301 304 306 306 305 305 305 306 308 309 311 313 313 313 313 314 315 315 314 314 315 316 316 316
298 292 298 280 276 270 264 255 250 266 300 299 288 290 291 294 297 298 301 304 305 304 304 304 305 306 307 309 311 312 313 315 315 316 314 314 313 312 313 314 317 318 318
293 284 284 270 261 256 247 246 291 309 283 284 290 293 294 296 299 302 304 304 304 304 304 306 307 308 309 311 312 313 314 315 315 314 313 313 314 314 315 315 314 314 313
280 273 267 257 251 239 252 295 283 276 287 292 291 293 295 299 302 304 304 303 303 305 307 309 309 308 308 309 312 314 315 315 315 315 315 316 316 316 317 317 316 314 311
258 244 235 237 237 252 279 274 282 284 286 288 292 295 300 303 303 301 301 301 303 305 308 310 310 310 312 312 312 313 313 314 315 316 316 316 317 319 321 321 321 321 320
213 216 223 230 248 264 265 269 276 285 290 292 295 300 300 299 298 298 300 302 305 308 312 312 311 311 310 310 310 311 312 314 315 316 317 318 320 322 325 326 326 326 325
209 213 225 237 248 259 271 280 287 290 292 295 295 295 296 298 300 302 303 304 306 309 313 315 316 316 314 313 312 313 314 317 319 320 321 321 323 324 327 329 329 328 328
209 218 232 246 259 268 277 284 284 287 292 295 297 299 301 303 303 303 304 304 306 309 314 319 320 317 315 314 314 315 317 319 321 322 323 323 324 325 326 329 331 330 330
212 225 237 248 262 274 274 279 288 292 294 296 299 303 305 306 306 306 305 305 306 311 317 318 317 315 313 313 315 317 319 321 323 324 325 325 324 325 326 328 331 332 331
216 230 246 261 266 270 281 288 291 293 297 301 305 309 311 310 310 309 307 307 308 311 314 314 315 313 312 313 316 317 319 321 323 325 325 325 325 326 327 329 330 331 332
227 245 259 262 269 276 284 287 291 295 301 307 310 312 312 310 309 309 309 308 308 309 311 311 311 309 309 311 314 316 318 320 322 324 325 325 325 327 327 328 329 330 330
245 254 254 260 273 283 285 288 296 304 308 309 310 311 311 310 309 307 306 306 307 307 308 308 308 305 305 307 311 314 317 320 321 323 324 324 325 326 327 328 328 329 330
246 249 261 273 280 284 291 297 301 304 306 307 308 309 309 309 308 308 308 308 307 306 306 307 306 303 303 306 309 312 316 319 320 321 323 324 324 326 327 328 328 328 328
250 260 269 279 286 289 294 298 301 302 303 305 307 307 307 309 309 309 309 309 308 306 305 304 303 301 303 307 310 313 316 319 320 322 324 324 324 327 329 328 329 328 329
257 266 275 282 287 291 294 297 298 300 302 305 307 307 307 309 310 309 310 311 310 308 305 304 303 303 305 308 310 313 316 319 320 321 322 324 327 327 325 327 327 329 332
264 272 278 285 287 290 294 296 297 300 302 304 306 307 307 308 309 309 311 312 310 308 306 304 303 304 306 308 309 312 315 318 319 321 322 322 324 323 324 328 328 329 332
Height
3093 3091 3090 3089 3088 3087 3086 3084 3083 3082 3081 3080 3078 3076 3074 3071 3068 3065 3063 3062 3060 3059 3056 3054 3052 3050 3047 3045 3042 3039 3035 3032 3026 3023 3018 3014 3010 3006 3001 2997 2994 2991 2988
3086 3085 3083 3082 3080 3079 3078 3077 3076 3075 3074 3073 3071 3069 3066 3063 3061 3058 3056 3054 3052 3051 3049 3047 3045 3042 3039 3037 3034 3030 3026 3021 3016 3011 3007 3001 2997 2993 2989 2983 2977 2974 2970
3078 3076 3075 3074 3073 3072 3071 3070 3069 3068 3066 3065 3063 3061 3058 3056 3053 3051 3049 3047 3045 3043 3041 3038 3035 3033 3030 3026 3023 3019 3014 3010 3005 2999 2993 2988 2982 2977 2973 2968 2963 2958 2952
3070 3068 3067 3066 3065 3064 3064 3063 3061 3060 3058 3057 3055 3052 3050 3047 3045 3043 3041 3038 3037 3035 3033 3030 3026 3023 3019 3015 3012 3008 3003 2998 2992 2987 2981 2975 2969 2963 2957 2949 2945 2943 2935
3062 3060 3059 3058 3058 3056 3055 3054 3052 3051 3049 3047 3045 3043 3040 3038 3035 3034 3033 3031 3028 3026 3023 3020 3016 3013 3009 3005 3000 2995 2990 2984 2979 2973 2967 2961 2955 2949 2942 2935 2929 2921 2917
3053 3052 3051 3050 3049 3048 3046 3045 3043 3041 3039 3037 3034 3032 3030 3028 3026 3026 3025 3022 3021 3018 3014 3010 3006 3001 2997 2992 2988 2982 2977 2970 2963 2958 2951 2945 2939 2932 2925 2919 2911 2902 2891
3044 3042 3041 3039 3039 3037 3036 3035 3033 3031 3029 3027 3025 3021 3019 3019 3019 3017 3017 3015 3011 3008 3004 3000 2996 2991 2987 2983 2978 2973 2967 2960 2953 2947 2940 2934 2927 2919 2912 2907 2902 2896 2887
3035 3033 3031 3029 3027 3026 3025 3024 3023 3021 3019 3017 3014 3011 3011 3012 3011 3009 3007 3005 3002 2998 2994 2990 2986 2982 2977 2973 2969 2963 2959 2953 2947 2940 2933 2926 2919 2912 2904 2897 2890 2885 2879
3025 3022 3020 3019 3017 3015 3014 3014 3012 3011 3009 3008 3005 3006 3005 3005 3004 3001 2998 2995 2992 2988 2984 2979 2976 2971 2967 2962 2958 2953 2948 2943 2938 2931 2925 2918 2911 2904 2897 2891 2884 2875 2867
3015 3012 3010 3009 3007 3005 3003 3003 3003 3002 3000 2998 2999 3000 2999 2999 2997 2994 2991 2987 2983 2980 2976 2970 2965 2961 2957 2953 2948 2943 2938 2932 2928 2924 2918 2911 2905 2897 2889 2881 2873 2866 2856
3005 3002 3001 2999 2997 2996 2996 2996 2995 2994 2993 2995 2995 2995 2994 2993 2990 2986 2983 2979 2975 2971 2967 2963 2958 2953 2949 2944 2938 2933 2928 2924 2919 2914 2909 2903 2897 2890 2883 2875 2866 2857 2850
2995 2992 2991 2989 2988 2989 2988 2989 2989 2989 2990 2990 2990 2990 2989 2986 2983 2979 2975 2970 2966 2963 2959 2954 2950 2945 2940 2935 2930 2925 2920 2915 2911 2906 2901 2896 2890 2884 2876 2868 2860 2852 2842
2984 2982 2981 2981 2982 2982 2984 2985 2983 2985 2987 2986 2985 2984 2982 2979 2975 2971 2967 2963 2959 2955 2951 2946 2941 2936 2932 2927 2922 2917 2912 2908 2904 2899 2894 2887 2881 2874 2867 2861 2854 2846 2838
2975 2974 2975 2976 2977 2979 2980 2979 2980 2982 2982 2981 2980 2977 2974 2971 2967 2964 2960 2956 2952 2947 2943 2938 2933 2928 2924 2920 2915 2910 2905 2901 2896 2891 2885 2878 2871 2865 2859 2851 2844 2837 2829
2968 2968 2970 2971 2975 2974 2975 2976 2977 2978 2977 2976 2973 2970 2967 2964 2960 2957 2953 2949 2945 2941 2936 2931 2926 2921 2917 2912 2908 2903 2899 2894 2889 2883 2876 2869 2863 2856 2850 2843 2835 2828 2819
2963 2965 2968 2969 2969 2971 2973 2973 2973 2972 2970 2969 2966 2963 2960 2958 2954 2951 2947 2942 2938 2934 2929 2925 2920 2915 2911 2907 2903 2898 2893 2887 2882 2875 2869 2861 2854 2847 2842 2836 2828 2821 2813
2960 2962 2964 2965 2966 2967 2968 2967 2966 2965 2964 2962 2960 2957 2954 2952 2947 2943 2939 2935 2931 2927 2923 2918 2913 2908 2903 2899 2895 2890 2886 2880 2874 2868 2861 2854 2847 2841 2835 2829 2822 2815 2809
2956 2958 2960 2961 2962 2963 2962 2961 2960 2959 2957 2955 2952 2950 2946 2943 2939 2935 2931 2927 2924 2919 2915 2910 2905 2900 2896 2892 2888 2884 2879 2874 2868 2861 2855 2848 2842 2835 2829 2823 2817 2809 2801
2953 2955 2956 2957 2957 2957 2956 2955 2953 2951 2950 2948 2945 2942 2938 2934 2931 2927 2924 2920 2916 2911 2907 2902 2898 2894 2890 2887 2882 2877 2872 2867 2861 2855 2849 2842 2836 2831 2824 2817 2811 2805 2797
2950 2951 2952 2952 2951 2950 2950 2948 2946 2944 2942 2940 2937 2933 2930 2926 2922 2919 2916 2912 2908 2904 2900 2895 2891 2887 2884 2880 2876 2871 2866 2860 2855 2849 2843 2837 2831 2825 2818 2811 2804 2798 2793
2945 2946 2946 2946 2946 2944 2942 2941 2940 2938 2934 2931 2928 2925 2922 2919 2914 2911 2907 2903 2900 2896 2892 2888 2884 2880 2876 2873 2869 2865 2860 2855 2849 2844 2838 2832 2826 2820 2813 2806 2799 2793 2786
2940 2940 2941 2940 2938 2937 2936 2934 2932 2929 2926 2923 2920 2917 2914 2911 2908 2904 2900 2896 2892 2889 2885 2882 2877 2873 2870 2866 2863 2858 2854 2849 2843 2838 2832 2826 2820 2814 2808 2801 2794 2787 2781
2934 2934 2934 2933 2932 2930 2929 2927 2924 2921 2919 2916 2913 2910 2907 2904 2900 2896 2892 2888 2884 2880 2877 2873 2870 2866 2863 2860 2856 2852 2847 2842 2837 2832 2827 2820 2814 2809 2802 2795 2788 2782 2775
2928 2928 2927 2926 2925 2923 2921 2919 2916 2914 2912 2909 2906 2903 2899 2896 2892 2888 2885 2881 2877 2872 2868 2865 2862 2859 2856 2852 2848 2844 2840 2835 2829 2824 2819 2814 2808 2802 2795 2789 2783 2777 2770
2921 2921 2921 2920 2918 2916 2914 2912 2909 2907 2904 2902 2899 2895 2892 2888 2884 2881 2877 2873 2869 2864 2860 2856 2854 2851 2849 2845 2841 2837 2832 2828 2822 2817 2812 2806 2801 2795 2790 2784 2779 2773 2767
2915 2914 2913 2912 2910 2908 2906 2904 2902 2900 2897 2894 2891 2888 2884 2880 2877 2873 2870 2866 2861 2856 2852 2849 2846 2844 2841 2838 2834 2830 2826 2821 2815 2810 2805 2800 2796 2790 2784 2779 2774 2769 2764